Location: Home
(51.5204°N, 2.5456°W)
Time: 15:47:12
(UTC+00:00)

STRAND 1 - Pass Details

Date: 12 December 2019
Orbit: 768 x 781 km, 98.5° (Epoch: 17 January)

Event Time Altitude Azimuth Distance (km) Brightness Sun altitude
Rises 04:33:46 0° 101° (ESE) 3,252 ? -31.7°
Reaches altitude 10° 04:37:24 10° 75° (ENE) 2,327 ? -31.1°
Maximum altitude 04:39:35 13° 49° (NE) 2,135 ? -30.8°
Drops below altitude 10° 04:41:46 10° 24° (NNE) 2,328 ? -30.4°
Enters shadow 04:44:45 - 0° (N) 3,060 ? -30.0°
